Weather History for Bowling Green, KY

Change the Weather History Date:

Sunday, November 4, 2012

  Actual Average Record
Temperature  
Mean Temperature 48 °F 53 °F  
Max Temperature 57 °F 64 °F 80 °F (1956)
Min Temperature 38 °F 41 °F 14 °F (1879)
Degree Days  
Heating Degree Days 17 13  
Month to date heating degree days 62 49  
Since 1 July heating degree days 336 312  
Cooling Degree Days 0 0  
Month to date cooling degree days 0 0  
Year to date cooling degree days 1935 1488  
Moisture  
Dew Point 35 °F    
Average Humidity 60    
Maximum Humidity 82    
Minimum Humidity 38    
Precipitation  
Precipitation 0.00 in 0.13 in 1.95 in (1936)
Month to date precipitation 0.00 0.52  
Year to date precipitation 34.42 41.39  
Snow  
Snow 0.00 in 0.00 in 2.00 in (1936)
Month to date snowfall 0.0 0.0  
Since 1 July snowfall 0.0 T  
Since 1 September snowfall 0.0 T  
Snow Depth 0.00 in    
Sea Level Pressure  
Sea Level Pressure 30.14 in    
Wind  
Wind Speed 4 mph (North)    
Max Wind Speed 9 mph    
Max Gust Speed 14 mph    
Visibility 10 miles    
Events      
T = Trace of Precipitation, MM = Missing Value Source: NWS Daily Summary

Daily Weather History Graph

Daily Weather History Graph

Search for Another Location

Airport:

Trip Planner

Search our weather history database for the weather conditions in past years. The results will help you decide how hot, cold, wet, or windy it might be!

Date:

Astronomy

Nov. 04, 2012 Rise Set
Actual Time 6:13 AM CST 4:44 PM CST
Civil Twilight 5:46 AM CST 5:11 PM CST
Nautical Twilight 5:15 AM CST 5:42 PM CST
Astronomical Twilight 4:44 AM CST 6:12 PM CST
Moon 9:23 PM CST (11/4) 10:55 AM CST (11/4)
Length of Visible Light 11h 25m
Length of Day
10h 31m
Waning Gibbous, 72% of the Moon is Illuminated
Nov 4
Waning Gibbous
Nov 6
Last Quarter
Nov 13
New
Nov 20
First Quarter
Nov 28
Full

Hourly Weather History & Observations

Time (CST) Temp. Windchill Dew Point Humidity Pressure Visibility Wind Dir Wind Speed Gust Speed Precip Events Conditions
12:53 AM 45.0 °F 42.6 °F 37.9 °F 76% 30.09 in 10.0 mi Variable 4.6 mph - N/A   Partly Cloudy
1:53 AM 44.1 °F - 37.0 °F 76% 30.09 in 10.0 mi Calm Calm - N/A   Mostly Cloudy
1:53 AM 43.0 °F 41.3 °F 37.0 °F 80% 30.10 in 10.0 mi North 3.5 mph - N/A   Scattered Clouds
2:01 AM 44.6 °F 40.7 °F 37.4 °F 76% 30.10 in 10.0 mi NNW 6.9 mph - N/A   Mostly Cloudy
2:42 AM 44.6 °F 42.2 °F 37.4 °F 76% 30.10 in 10.0 mi North 4.6 mph - N/A   Overcast
2:53 AM 43.0 °F 40.3 °F 37.0 °F 80% 30.10 in 10.0 mi North 4.6 mph - N/A   Overcast
3:53 AM 43.0 °F 40.3 °F 37.0 °F 80% 30.11 in 10.0 mi North 4.6 mph - N/A   Overcast
4:53 AM 42.1 °F 37.7 °F 36.0 °F 79% 30.13 in 10.0 mi North 6.9 mph - N/A   Overcast
5:53 AM 42.1 °F 38.4 °F 36.0 °F 79% 30.13 in 10.0 mi North 5.8 mph - N/A   Overcast
6:53 AM 43.0 °F 41.3 °F 36.0 °F 76% 30.16 in 10.0 mi North 3.5 mph - N/A   Overcast
7:53 AM 44.1 °F 40.1 °F 37.0 °F 76% 30.17 in 10.0 mi NE 6.9 mph - N/A   Overcast
8:14 AM 44.6 °F 42.2 °F 37.4 °F 76% 30.17 in 10.0 mi ENE 4.6 mph - N/A   Overcast
8:53 AM 45.0 °F 43.5 °F 37.0 °F 74% 30.18 in 10.0 mi North 3.5 mph - N/A   Overcast
9:24 AM 46.4 °F 45.2 °F 37.4 °F 71% 30.18 in 10.0 mi NNW 3.5 mph - N/A   Scattered Clouds
9:53 AM 48.9 °F - 37.9 °F 66% 30.19 in 10.0 mi North 5.8 mph - N/A   Clear
10:53 AM 51.1 °F - 37.9 °F 61% 30.18 in 10.0 mi NNW 5.8 mph - N/A   Scattered Clouds
11:53 AM 53.1 °F - 36.0 °F 52% 30.17 in 10.0 mi NNW 5.8 mph - N/A   Clear
12:53 PM 54.0 °F - 35.1 °F 49% 30.14 in 10.0 mi Variable 3.5 mph - N/A   Clear
1:53 PM 55.9 °F - 34.0 °F 44% 30.14 in 10.0 mi Variable 4.6 mph - N/A   Clear
2:53 PM 57.0 °F - 32.0 °F 39% 30.13 in 10.0 mi NNE 4.6 mph - N/A   Clear
3:53 PM 55.9 °F - 30.0 °F 37% 30.12 in 10.0 mi Variable 5.8 mph - N/A   Clear
4:53 PM 52.0 °F - 30.0 °F 43% 30.14 in 10.0 mi NNW 3.5 mph - N/A   Clear
5:53 PM 50.0 °F - 32.0 °F 50% 30.15 in 10.0 mi NW 3.5 mph - N/A   Clear
6:53 PM 48.0 °F - 32.0 °F 54% 30.16 in 10.0 mi NW 3.5 mph - N/A   Clear
7:53 PM 46.0 °F - 30.9 °F 56% 30.16 in 10.0 mi Calm Calm - N/A   Clear
8:53 PM 45.0 °F - 30.9 °F 58% 30.17 in 10.0 mi Calm Calm - N/A   Clear
9:53 PM 39.0 °F - 30.0 °F 70% 30.16 in 10.0 mi Calm Calm - N/A   Clear
10:53 PM 39.9 °F - 30.9 °F 70% 30.16 in 10.0 mi Calm Calm - N/A   Clear